#timestamp,LO_Frequency,Hit,StdDev 
1569837615.8,286047000.8,Y
1569837635.7,286046995.5,P
1569837655.5,286046993.9,N
1569837675.3,286046993.1,N
1569837695.2,286046992.4,N
1569837715.0,286046998.9,N
1569837715.9,286046998.9,N
1569837735.8,286046998.9,N
1569837755.6,286046997.2,N
1569837775.4,286046994.7,N
1569837795.3,286046987.6,Y
1569837815.1,286046988.3,P
1569837835.9,286046991.0,N
1569837855.7,286046986.9,P
1569837875.5,286046988.0,Y
1569837895.4,286046995.7,P
1569837915.2,286046993.6,N
1569837935.0,286046991.8,P
1569837935.9,286046991.8,Y
1569837955.8,286047000.8,P
1569837975.6,286046998.3,N
1569837995.5,286047000.4,N
1569838015.3,286047002.0,N
1569838035.1,286047000.7,N
1569838055.9,286046996.9,N
1569838075.7,286046993.7,N
1569838095.6,286046995.2,N
1569838115.4,286047000.1,N
1569838135.2,286047002.1,N
1569838155.1,286047002.7,N
1569838156.0,286047002.7,N
1569838175.8,286046996.8,N
1569838195.6,286046993.7,N
1569838215.5,286046997.3,N
1569838235.3,286046996.1,N
1569838255.2,286046991.8,N
1569838275.9,286046992.0,N
1569838295.7,286046992.0,N
1569838315.6,286046993.1,N
1569838335.4,286046993.2,N
1569838355.2,286046991.7,N
1569838375.1,286046991.7,N
1569838376.0,286046991.7,N
1569838395.8,286046988.9,N
1569838415.7,286046989.8,N
1569838435.5,286046990.8,N
1569838455.3,286046992.5,N
1569838475.2,286046992.3,N
1569838495.9,286046994.6,N
1569838515.7,286046993.4,N
1569838535.6,286046998.6,N
1569838555.4,286046999.9,N
1569838575.2,286047000.1,N
1569838595.1,286047002.2,N
1569838596.0,286047002.2,N
1569838615.8,286046998.7,N
1569838635.7,286046997.6,N
1569838655.5,286046999.1,N
1569838675.3,286046997.3,N
1569838695.2,286046999.3,N
1569838715.0,286046997.3,N
1569838715.9,286046997.3,N
1569838735.8,286046997.5,N
1569838755.6,286046999.2,N
1569838775.4,286047000.8,N
1569838795.3,286046998.2,N
1569838815.1,286046997.2,N
1569838835.8,286046998.6,N
1569838855.7,286046995.5,N
1569838875.5,286046993.4,N
1569838895.4,286046995.6,N
1569838915.2,286046995.2,N
1569838935.0,286046991.9,N
1569838935.9,286046991.9,N
1569838955.8,286046992.4,N
1569838975.6,286046991.4,N
1569838995.4,286046991.0,N
1569839015.3,286046988.9,Y
1569839035.1,286046994.3,P
1569839055.9,286046990.6,P
1569839075.7,286046990.7,P
1569839095.5,286046988.5,Y
1569839115.4,286046993.5,P
1569839135.2,286046995.9,P
1569839155.0,286046993.8,P
1569839156.0,286046993.8,Y
1569839175.8,286047000.0,P
1569839195.6,286047000.6,N
1569839215.5,286047002.3,N
1569839235.3,286047004.0,N
1569839255.1,286047003.9,N
1569839275.9,286047001.0,N
1569839295.7,286047001.3,N
1569839315.6,286046998.6,N
1569839335.4,286047001.6,N
1569839355.2,286047003.4,N
1569839375.1,286047003.7,N
1569839376.0,286047003.7,N
1569839395.8,286047005.9,N
1569839415.6,286047002.6,N
1569839435.5,286046999.4,N
1569839455.3,286046997.2,N
1569839475.2,286046999.0,N
1569839495.9,286046999.0,N
1569839515.7,286047000.4,N
1569839535.6,286046998.4,N
1569839555.4,286047000.8,N
1569839575.2,286047001.5,N
1569839595.1,286047001.9,N
1569839596.0,286047001.9,N
1569839615.8,286047003.3,N
1569839635.7,286047005.0,N
1569839655.5,286047006.8,N
1569839675.3,286047005.0,N
1569839695.2,286047008.3,Y
1569839715.0,286047008.0,P
1569839715.9,286047008.0,N
1569839735.7,286047007.7,N
1569839755.6,286047008.6,Y
1569839775.4,286047001.4,P
1569839795.3,286047002.0,N
1569839815.1,286047000.9,N
1569839816.0,286047000.9,N
1569839835.8,286047002.7,N
1569839855.7,286047000.5,N
1569839875.5,286047001.1,N
1569839895.3,286046998.9,N
1569839915.2,286046998.8,N
1569839935.0,286046999.2,N
1569839935.9,286046999.2,N
1569839955.8,286047000.8,N
1569839975.6,286047001.2,N
1569839995.4,286047000.6,N
1569840015.3,286047004.0,N
1569840035.1,286047001.5,N
1569840055.8,286047002.3,N
1569840075.7,286047001.5,N
1569840095.5,286047004.3,N
1569840115.4,286046999.9,N
1569840135.2,286047001.0,N
1569840155.0,286047000.5,N
1569840155.9,286047000.5,N
1569840175.8,286047001.6,N
1569840195.6,286047001.5,N
1569840215.4,286047001.9,N
1569840235.3,286047001.8,N
1569840255.1,286047002.9,N
1569840275.9,286047006.7,Y
1569840295.7,286047006.7,P
1569840315.5,286047004.9,N
1569840335.4,286047010.1,P
1569840355.2,286047015.0,Y
1569840375.0,286047009.3,P
1569840375.9,286047009.3,P
1569840395.8,286047014.0,P
1569840415.6,286047015.4,Y
1569840435.5,286047005.9,P
1569840455.3,286047001.3,N
1569840475.1,286047006.7,N
1569840495.9,286047008.2,N
1569840515.7,286047007.8,N
1569840535.5,286047010.6,Y
1569840555.4,286047003.8,P
1569840575.2,286047004.9,P
1569840595.1,286047007.2,P
1569840596.0,286047007.2,Y
1569840615.8,286046999.9,P
1569840635.6,286046998.6,N
1569840655.5,286046998.3,N
1569840675.3,286046996.6,N
1569840695.1,286046999.5,N
1569840715.9,286046998.5,N
1569840735.7,286046998.1,N
1569840755.6,286047001.1,N
1569840775.4,286046998.3,N
1569840795.2,286046998.2,N
1569840815.1,286046999.2,N
1569840816.0,286046999.2,N
1569840835.8,286046999.5,N
1569840855.6,286047000.7,N
1569840875.5,286047001.1,N
1569840895.3,286046995.0,N
1569840915.2,286046994.5,N
1569840935.9,286046990.5,Y
1569840955.7,286046993.0,P
1569840975.6,286046992.3,N
1569840995.4,286046991.0,P
1569841015.2,286046993.9,N
1569841035.1,286046999.3,N
1569841036.0,286046999.3,N
1569841055.8,286046999.1,N
1569841075.7,286046998.1,N
1569841095.5,286047000.5,N
1569841115.3,286046998.3,N
1569841135.2,286046998.7,N
1569841155.0,286047002.5,N
1569841155.9,286047002.5,N
1569841175.8,286047000.2,N
1569841195.6,286047000.8,N
